Location: Newark
(16.3678°N, 77.8722°E)
Time: 10:43:02
(UTC+00:00)

S-56A Canister/Altair - Pass Details

Date: 11 December 2019
Orbit: 634 x 2498 km, 38.9° (Epoch: 24 January)

Event Time Altitude Azimuth Distance (km) Brightness Sun altitude
Rises 11:52:18 0° 306° (NW) 5,803 12.4 4.5°
Reaches altitude 10° 11:56:28 10° 306° (NW) 4,580 11.9 3.6°
Maximum altitude 12:08:31 81° 221° (SW) 1,566 9.3 1.0°
Drops below altitude 10° 12:16:18 10° 134° (SE) 3,063 10.4 -0.7°
Sets 12:18:35 0° 133° (SE) 3,823 10.9 -1.2°
